FYT7102 EDDM-LIRF

Flight info

Callsign FYT7102
Flight time 1h 9m
Altitude 35000
Route TURBU Y107 TOBSO DCT BAKOR DCT VESAL DCT DIPVO DCT NIKMA T369 RITEB
Aircraft A321/M-SDE1FGHIJ1RWXY/S

Departure

Time 2026-05-05 22:32
Airport Munich Airport (EDDM)

Arrival

Time 2026-05-05 23:41
Airport Rome–Fiumicino Leonardo da Vinci International Airport (LIRF)
Time Latitude Longitude Altitude Speed Heading
2026-05-05 21:58 48.35460 11.77664 1479 ft 0 kts 263°
2026-05-05 22:21 48.35461 11.77674 1479 ft 2 kts 263°
2026-05-05 22:22 48.35463 11.77696 1479 ft 2 kts 263°
2026-05-05 22:22 48.35465 11.77718 1479 ft 2 kts 263°
2026-05-05 22:22 48.35466 11.77741 1478 ft 2 kts 263°
2026-05-05 22:22 48.35468 11.77761 1478 ft 1 kts 263°
2026-05-05 22:23 48.35468 11.77771 1478 ft 0 kts 317°
2026-05-05 22:23 48.35463 11.77775 1478 ft 0 kts 359°
2026-05-05 22:23 48.35457 11.77776 1478 ft 0 kts 354°
2026-05-05 22:25 48.35464 11.77774 1478 ft 2 kts 353°
2026-05-05 22:25 48.35495 11.77765 1478 ft 6 kts 348°
2026-05-05 22:25 48.35555 11.77748 1478 ft 10 kts 351°
2026-05-05 22:26 48.35645 11.77731 1477 ft 14 kts 354°
2026-05-05 22:26 48.35751 11.77743 1476 ft 16 kts 39°
2026-05-05 22:26 48.35831 11.77854 1475 ft 16 kts
2026-05-05 22:26 48.35947 11.77854 1474 ft 15 kts 30°
2026-05-05 22:27 48.35992 11.77998 1474 ft 15 kts 84°
2026-05-05 22:27 48.36005 11.78166 1473 ft 16 kts 84°
2026-05-05 22:27 48.36019 11.78338 1473 ft 16 kts 83°
2026-05-05 22:27 48.36032 11.78512 1473 ft 16 kts 84°
2026-05-05 22:28 48.36046 11.78691 1472 ft 17 kts 83°
2026-05-05 22:28 48.36060 11.78873 1471 ft 18 kts 83°
2026-05-05 22:28 48.36074 11.79064 1470 ft 18 kts 82°
2026-05-05 22:28 48.36092 11.79257 1469 ft 19 kts 82°
2026-05-05 22:29 48.36105 11.79458 1468 ft 19 kts 84°
2026-05-05 22:29 48.36118 11.79658 1467 ft 19 kts 85°
2026-05-05 22:29 48.36136 11.79865 1466 ft 20 kts 83°
2026-05-05 22:29 48.36152 11.80077 1464 ft 20 kts 82°
2026-05-05 22:30 48.36169 11.80291 1463 ft 20 kts 85°
2026-05-05 22:30 48.36186 11.80508 1462 ft 20 kts 81°
2026-05-05 22:30 48.36299 11.80571 1460 ft 19 kts 348°
2026-05-05 22:30 48.36381 11.80427 1460 ft 18 kts 294°
2026-05-05 22:31 48.36430 11.80258 1461 ft 17 kts 293°
2026-05-05 22:31 48.36489 11.80052 1462 ft 29 kts 293°
2026-05-05 22:31 48.36475 11.79386 1465 ft 98 kts 266°
2026-05-05 22:31 48.36376 11.78046 1471 ft 156 kts 264°
2026-05-05 22:32 48.36253 11.76277 1809 ft 176 kts 265°
2026-05-05 22:32 48.36161 11.74476 2591 ft 172 kts 266°
2026-05-05 22:32 48.35881 11.72765 3222 ft 178 kts 245°
2026-05-05 22:32 48.34987 11.71385 3593 ft 201 kts 214°
2026-05-05 22:33 48.33564 11.70871 4013 ft 223 kts 186°
2026-05-05 22:33 48.31984 11.70867 4591 ft 232 kts 185°
2026-05-05 22:33 48.30372 11.70844 5407 ft 230 kts 185°
2026-05-05 22:33 48.28789 11.71056 6161 ft 235 kts 168°
2026-05-05 22:34 48.27294 11.72125 6731 ft 248 kts 151°
2026-05-05 22:34 48.25816 11.73626 7147 ft 266 kts 148°
2026-05-05 22:34 48.24263 11.75262 7565 ft 283 kts 148°
2026-05-05 22:34 48.22628 11.76966 8210 ft 289 kts 149°
2026-05-05 22:35 48.20974 11.78665 9000 ft 290 kts 149°
2026-05-05 22:35 48.19323 11.80327 9784 ft 290 kts 151°
2026-05-05 22:35 48.17548 11.81767 10547 ft 290 kts 158°
2026-05-05 22:35 48.15660 11.82876 11034 ft 300 kts 164°
2026-05-05 22:36 48.13631 11.83891 11345 ft 317 kts 165°
2026-05-05 22:36 48.11503 11.84932 11647 ft 332 kts 165°
2026-05-05 22:36 48.09249 11.86036 12129 ft 341 kts 164°
2026-05-05 22:36 48.07000 11.87147 12768 ft 345 kts 165°
2026-05-05 22:37 48.04712 11.88282 13398 ft 348 kts 164°
2026-05-05 22:37 48.02418 11.89421 13990 ft 352 kts 164°
2026-05-05 22:37 48.00086 11.90580 14615 ft 354 kts 165°
2026-05-05 22:37 47.97769 11.91730 15245 ft 356 kts 165°
2026-05-05 22:38 47.95405 11.92900 15861 ft 358 kts 165°
2026-05-05 22:38 47.93058 11.93977 16439 ft 357 kts 169°
2026-05-05 22:38 47.90619 11.94638 17040 ft 356 kts 176°
2026-05-05 22:38 47.88170 11.94831 17608 ft 356 kts 183°
2026-05-05 22:39 47.85703 11.94804 18169 ft 357 kts 184°
2026-05-05 22:39 47.83196 11.94746 18732 ft 358 kts 184°
2026-05-05 22:39 47.80727 11.94689 19274 ft 360 kts 184°
2026-05-05 22:39 47.78216 11.94636 19671 ft 366 kts 184°
2026-05-05 22:40 47.75618 11.94582 19864 ft 377 kts 184°
2026-05-05 22:40 47.72974 11.94529 20053 ft 387 kts 184°
2026-05-05 22:40 47.70236 11.94477 20233 ft 397 kts 184°
2026-05-05 22:40 47.67482 11.94427 20399 ft 406 kts 184°
2026-05-05 22:41 47.64633 11.94376 20561 ft 414 kts 184°
2026-05-05 22:41 47.61734 11.94325 20708 ft 422 kts 184°
2026-05-05 22:41 47.58735 11.94273 20851 ft 430 kts 184°
2026-05-05 22:41 47.55756 11.94222 21079 ft 434 kts 184°
2026-05-05 22:42 47.52753 11.94176 21788 ft 426 kts 184°
2026-05-05 22:42 47.49835 11.94133 22679 ft 416 kts 184°
2026-05-05 22:42 47.47005 11.94088 23570 ft 405 kts 184°
2026-05-05 22:42 47.44237 11.93998 24479 ft 393 kts 186°
2026-05-05 22:43 47.41576 11.93688 25395 ft 381 kts 190°
2026-05-05 22:43 47.39011 11.93195 26296 ft 370 kts 191°
2026-05-05 22:43 47.36528 11.92703 27187 ft 359 kts 192°
2026-05-05 22:43 47.34091 11.92225 28032 ft 349 kts 192°
2026-05-05 22:44 47.31694 11.91745 28347 ft 353 kts 192°
2026-05-05 22:44 47.29210 11.91243 28503 ft 361 kts 192°
2026-05-05 22:44 47.26671 11.90735 28662 ft 369 kts 192°
2026-05-05 22:44 47.24128 11.90225 28815 ft 376 kts 192°
2026-05-05 22:45 47.21514 11.89704 28960 ft 383 kts 192°
2026-05-05 22:45 47.18850 11.89177 29101 ft 390 kts 192°
2026-05-05 22:45 47.16134 11.88637 29239 ft 397 kts 192°
2026-05-05 22:45 47.13374 11.88092 29451 ft 401 kts 192°
2026-05-05 22:46 47.10654 11.87560 30123 ft 393 kts 192°
2026-05-05 22:46 47.07987 11.87041 30935 ft 382 kts 193°
2026-05-05 22:46 47.05425 11.86542 31705 ft 370 kts 193°
2026-05-05 22:46 47.02900 11.86048 32478 ft 358 kts 194°
2026-05-05 22:47 47.00502 11.85436 33104 ft 348 kts 198°
2026-05-05 22:47 46.98128 11.84676 33246 ft 352 kts 199°
2026-05-05 22:47 46.95733 11.83904 33375 ft 357 kts 199°
2026-05-05 22:47 46.93303 11.83124 33493 ft 362 kts 198°
2026-05-05 22:48 46.90798 11.82324 33614 ft 367 kts 198°
2026-05-05 22:48 46.88274 11.81525 33737 ft 371 kts 198°
2026-05-05 22:48 46.85764 11.80726 33899 ft 375 kts 199°
2026-05-05 22:48 46.83250 11.79938 34461 ft 367 kts 199°
2026-05-05 22:49 46.80769 11.79154 34850 ft 363 kts 198°
2026-05-05 22:49 46.78300 11.78367 35004 ft 366 kts 198°
2026-05-05 22:49 46.75795 11.77571 35009 ft 373 kts 198°
2026-05-05 22:50 46.70633 11.75940 35016 ft 386 kts 198°
2026-05-05 22:50 46.65309 11.74269 35009 ft 395 kts 198°
2026-05-05 22:51 46.59862 11.73018 34984 ft 400 kts 192°
2026-05-05 22:51 46.54295 11.72533 34976 ft 402 kts 189°
2026-05-05 22:52 46.48739 11.72210 34969 ft 402 kts 189°
2026-05-05 22:52 46.43145 11.71894 34968 ft 404 kts 188°
2026-05-05 22:53 46.37500 11.72065 34967 ft 408 kts 183°
2026-05-05 22:53 46.31827 11.73006 34969 ft 411 kts 180°
2026-05-05 22:54 46.26186 11.74046 34968 ft 409 kts 180°
2026-05-05 22:54 46.20532 11.75089 34967 ft 411 kts 180°
2026-05-05 22:55 46.14901 11.76131 34967 ft 411 kts 180°
2026-05-05 22:55 46.09240 11.77176 34962 ft 411 kts 180°
2026-05-05 22:56 46.03558 11.78220 34962 ft 411 kts 180°
2026-05-05 22:56 45.97895 11.79266 34958 ft 411 kts 181°
2026-05-05 22:57 45.92230 11.80309 34946 ft 411 kts 181°
2026-05-05 22:57 45.86552 11.81350 34951 ft 412 kts 181°
2026-05-05 22:58 45.80891 11.82386 34955 ft 412 kts 180°
2026-05-05 22:58 45.75228 11.83420 34953 ft 413 kts 181°
2026-05-05 22:59 45.69503 11.84463 34953 ft 413 kts 180°
2026-05-05 22:59 45.63840 11.85495 34952 ft 412 kts 180°
2026-05-05 23:00 45.55292 11.87046 34957 ft 414 kts 180°
2026-05-05 23:00 45.49616 11.88075 34950 ft 413 kts 180°
2026-05-05 23:01 45.43912 11.89107 34952 ft 414 kts 181°
2026-05-05 23:01 45.38200 11.90136 34953 ft 415 kts 181°
2026-05-05 23:02 45.32495 11.91162 34951 ft 414 kts 180°
2026-05-05 23:02 45.26792 11.92189 34948 ft 414 kts 181°
2026-05-05 23:03 45.21090 11.93210 34940 ft 415 kts 181°
2026-05-05 23:03 45.15358 11.94234 34943 ft 414 kts 180°
2026-05-05 23:04 45.09682 11.95244 34936 ft 414 kts 180°
2026-05-05 23:04 45.03933 11.96269 34938 ft 414 kts 180°
2026-05-05 23:05 44.98263 11.97279 34934 ft 413 kts 180°
2026-05-05 23:05 44.92566 11.98290 34929 ft 413 kts 180°
2026-05-05 23:06 44.86840 11.99304 34925 ft 415 kts 181°
2026-05-05 23:06 44.81128 12.00312 34919 ft 416 kts 180°
2026-05-05 23:07 44.75391 12.01324 34923 ft 415 kts 181°
2026-05-05 23:07 44.69691 12.02329 34924 ft 416 kts 180°
2026-05-05 23:08 44.63938 12.03340 34929 ft 416 kts 181°
2026-05-05 23:08 44.58223 12.04345 34926 ft 417 kts 181°
2026-05-05 23:09 44.52478 12.05343 34936 ft 416 kts 180°
2026-05-05 23:09 44.46774 12.06343 34936 ft 415 kts 181°
2026-05-05 23:10 44.41028 12.07345 34941 ft 416 kts 181°
2026-05-05 23:10 44.35308 12.08337 34948 ft 416 kts 180°
2026-05-05 23:11 44.29556 12.09337 34957 ft 416 kts 180°
2026-05-05 23:11 44.23821 12.10329 34956 ft 417 kts 180°
2026-05-05 23:12 44.18064 12.11326 34960 ft 417 kts 180°
2026-05-05 23:12 44.12276 12.12325 34959 ft 418 kts 180°
2026-05-05 23:13 44.06525 12.13318 34956 ft 419 kts 181°
2026-05-05 23:13 44.00790 12.14304 34952 ft 417 kts 180°
2026-05-05 23:14 43.95036 12.15292 34950 ft 419 kts 181°
2026-05-05 23:14 43.89258 12.16283 34635 ft 418 kts 180°
2026-05-05 23:15 43.86331 12.16785 34397 ft 415 kts 180°
2026-05-05 23:15 43.83448 12.17279 34121 ft 413 kts 180°
2026-05-05 23:15 43.80571 12.17767 33846 ft 410 kts 180°
2026-05-05 23:15 43.77737 12.18252 33569 ft 410 kts 180°
2026-05-05 23:16 43.74881 12.18740 33294 ft 410 kts 180°
2026-05-05 23:16 43.72045 12.19223 33018 ft 410 kts 180°
2026-05-05 23:16 43.69208 12.19703 32740 ft 412 kts 180°
2026-05-05 23:16 43.66388 12.20178 32471 ft 412 kts 180°
2026-05-05 23:17 43.63526 12.20528 32190 ft 410 kts 184°
2026-05-05 23:17 43.60713 12.20655 31915 ft 410 kts 187°
2026-05-05 23:17 43.57850 12.20565 31639 ft 408 kts 188°
2026-05-05 23:17 43.55026 12.20423 31367 ft 410 kts 188°
2026-05-05 23:18 43.52170 12.20283 31086 ft 411 kts 188°
2026-05-05 23:18 43.49319 12.20145 30757 ft 411 kts 188°
2026-05-05 23:18 43.46472 12.20004 30274 ft 411 kts 188°
2026-05-05 23:18 43.43594 12.19837 29713 ft 410 kts 189°
2026-05-05 23:19 43.40798 12.19558 29197 ft 408 kts 190°
2026-05-05 23:19 43.37950 12.19244 28698 ft 404 kts 189°
2026-05-05 23:19 43.35160 12.18940 28227 ft 399 kts 189°
2026-05-05 23:19 43.32414 12.18642 27713 ft 396 kts 189°
2026-05-05 23:20 43.29696 12.18356 27230 ft 391 kts 188°
2026-05-05 23:20 43.27009 12.18073 26753 ft 387 kts 188°
2026-05-05 23:20 43.24354 12.17795 26272 ft 383 kts 188°
2026-05-05 23:20 43.21696 12.17522 25814 ft 378 kts 187°
2026-05-05 23:21 43.19088 12.17252 25363 ft 374 kts 187°
2026-05-05 23:21 43.16515 12.16989 24890 ft 371 kts 187°
2026-05-05 23:21 43.13973 12.16728 24441 ft 367 kts 187°
2026-05-05 23:21 43.11445 12.16466 23967 ft 364 kts 187°
2026-05-05 23:22 43.08939 12.16207 23480 ft 361 kts 186°
2026-05-05 23:22 43.06434 12.15953 22960 ft 359 kts 186°
2026-05-05 23:22 43.03942 12.15700 22452 ft 357 kts 186°
2026-05-05 23:22 43.01494 12.15453 21958 ft 355 kts 186°
2026-05-05 23:23 42.99041 12.15315 21481 ft 353 kts 184°
2026-05-05 23:23 42.96581 12.15242 21017 ft 350 kts 183°
2026-05-05 23:23 42.94159 12.15177 20522 ft 349 kts 184°
2026-05-05 23:23 42.91742 12.15107 19995 ft 349 kts 184°
2026-05-05 23:24 42.89312 12.15034 19446 ft 349 kts 184°
2026-05-05 23:24 42.86868 12.14958 18902 ft 350 kts 184°
2026-05-05 23:24 42.84436 12.14879 18350 ft 351 kts 184°
2026-05-05 23:24 42.82005 12.14798 17816 ft 351 kts 184°
2026-05-05 23:25 42.79591 12.14717 17289 ft 351 kts 184°
2026-05-05 23:25 42.77129 12.14634 16759 ft 350 kts 184°
2026-05-05 23:25 42.74718 12.14554 16250 ft 350 kts 184°
2026-05-05 23:25 42.72293 12.14472 15742 ft 349 kts 184°
2026-05-05 23:26 42.69854 12.14392 15209 ft 348 kts 184°
2026-05-05 23:26 42.67436 12.14311 14694 ft 348 kts 184°
2026-05-05 23:26 42.65052 12.14232 14208 ft 346 kts 184°
2026-05-05 23:26 42.62632 12.14152 13692 ft 345 kts 184°
2026-05-05 23:27 42.60255 12.14074 13200 ft 343 kts 184°
2026-05-05 23:27 42.57873 12.13995 12727 ft 340 kts 184°
2026-05-05 23:27 42.55535 12.13917 12258 ft 338 kts 184°
2026-05-05 23:27 42.53188 12.13839 11786 ft 335 kts 183°
2026-05-05 23:28 42.50893 12.13763 11333 ft 331 kts 183°
2026-05-05 23:28 42.48591 12.13687 10872 ft 328 kts 183°
2026-05-05 23:28 42.46304 12.13612 10446 ft 323 kts 183°
2026-05-05 23:28 42.44134 12.13542 10186 ft 301 kts 183°
2026-05-05 23:29 42.42124 12.13480 10091 ft 275 kts 183°
2026-05-05 23:29 42.40272 12.13421 10011 ft 259 kts 183°
2026-05-05 23:29 42.38495 12.13364 9904 ft 253 kts 183°
2026-05-05 23:29 42.36745 12.13305 9588 ft 248 kts 183°
2026-05-05 23:30 42.35058 12.13250 9224 ft 241 kts 184°
2026-05-05 23:30 42.33398 12.13195 8954 ft 239 kts 184°
2026-05-05 23:30 42.31730 12.13139 8691 ft 238 kts 184°
2026-05-05 23:30 42.30087 12.13084 8424 ft 236 kts 183°
2026-05-05 23:31 42.28460 12.13029 8155 ft 235 kts 183°
2026-05-05 23:31 42.26836 12.12977 7847 ft 229 kts 184°
2026-05-05 23:31 42.25276 12.12927 7471 ft 221 kts 184°
2026-05-05 23:31 42.23744 12.12875 7264 ft 218 kts 184°
2026-05-05 23:32 42.22244 12.12825 7180 ft 215 kts 183°
2026-05-05 23:32 42.20749 12.12775 6763 ft 215 kts 183°
2026-05-05 23:32 42.19272 12.12727 6300 ft 214 kts 183°
2026-05-05 23:32 42.17780 12.12678 5950 ft 213 kts 183°
2026-05-05 23:33 42.16302 12.12629 5649 ft 212 kts 183°
2026-05-05 23:33 42.14826 12.12579 5355 ft 211 kts 182°
2026-05-05 23:33 42.13364 12.12532 5086 ft 208 kts 182°
2026-05-05 23:33 42.11943 12.12488 4775 ft 201 kts 183°
2026-05-05 23:34 42.10564 12.12442 4514 ft 196 kts 182°
2026-05-05 23:34 42.09214 12.12381 4284 ft 195 kts 183°
2026-05-05 23:34 42.07857 12.12303 4066 ft 193 kts 182°
2026-05-05 23:34 42.06525 12.12398 4011 ft 194 kts 174°
2026-05-05 23:35 42.05191 12.12750 3908 ft 195 kts 168°
2026-05-05 23:35 42.03895 12.13255 3714 ft 194 kts 165°
2026-05-05 23:35 42.02603 12.13804 3552 ft 194 kts 164°
2026-05-05 23:35 42.01316 12.14354 3397 ft 193 kts 164°
2026-05-05 23:36 42.00030 12.14900 3244 ft 193 kts 165°
2026-05-05 23:36 41.98750 12.15440 3095 ft 193 kts 164°
2026-05-05 23:36 41.97525 12.15954 2926 ft 180 kts 164°
2026-05-05 23:36 41.96361 12.16442 2877 ft 172 kts 164°
2026-05-05 23:37 41.95205 12.16925 2789 ft 173 kts 164°
2026-05-05 23:37 41.94070 12.17398 2570 ft 172 kts 163°
2026-05-05 23:37 41.92919 12.17879 2342 ft 172 kts 163°
2026-05-05 23:37 41.91777 12.18355 2114 ft 169 kts 163°
2026-05-05 23:38 41.90708 12.18803 1873 ft 153 kts 162°
2026-05-05 23:38 41.89703 12.19222 1672 ft 149 kts 162°
2026-05-05 23:38 41.88716 12.19635 1490 ft 150 kts 162°
2026-05-05 23:38 41.87735 12.20047 1286 ft 141 kts 161°
2026-05-05 23:39 41.86826 12.20427 1102 ft 137 kts 161°
2026-05-05 23:39 41.85913 12.20809 927 ft 136 kts 161°
2026-05-05 23:39 41.85009 12.21185 751 ft 135 kts 162°
2026-05-05 23:39 41.84114 12.21559 571 ft 135 kts 161°
2026-05-05 23:40 41.83218 12.21935 389 ft 134 kts 161°
2026-05-05 23:40 41.82321 12.22311 208 ft 134 kts 161°
2026-05-05 23:40 41.81434 12.22683 35 ft 133 kts 161°
2026-05-05 23:40 41.80584 12.23044 14 ft 116 kts 163°
2026-05-05 23:41 41.79977 12.23297 14 ft 66 kts 162°
2026-05-05 23:41 41.79689 12.23425 14 ft 31 kts 157°
2026-05-05 23:41 41.79503 12.23553 14 ft 29 kts 142°
2026-05-05 23:41 41.79367 12.23745 14 ft 27 kts 133°
2026-05-05 23:42 41.79340 12.23967 15 ft 25 kts 59°
2026-05-05 23:42 41.79449 12.23992 15 ft 7 kts 341°
2026-05-05 23:42 41.79504 12.23966 15 ft 9 kts 340°
2026-05-05 23:42 41.79563 12.23970 15 ft 9 kts 45°
2026-05-05 23:43 41.79581 12.24028 15 ft 2 kts 71°
2026-05-05 23:43 41.79589 12.24055 15 ft 3 kts 68°
2026-05-05 23:43 41.79591 12.24060 15 ft 0 kts 68°